Hourly Data Report for October 23, 2015

All times are specified in Local Standard Time (LST). Add 1 hour to adjust for Daylight Saving Time where and when it is observed.

RANKIN INLET A
NUNAVUT

62°48'38.000" N
92°06'53.000" W
32.30 m
2303405
71083
YRT

Download Data

Hourly Data (October 2015)
Hourly Data Report for October 23, 2015
Temp Definition
°C
Dew Point Temp Definition
°C
Rel Hum Definition
%
Wind Dir Definition
10's deg

Wind Spd Definition
km/h
Visibility Definition
km
Stn Press Definition
kPa
Hmdx Definition


Wind Chill Definition


Weather Definition


TIME
00:00 Legend Double Dagger -0.6 -1.3 95 19 28 3.2 100.22   -7 Snow
01:00 Legend Double Dagger -0.5 -1.4 94 21 35 4.8 100.12   -8 Freezing Drizzle,Snow
02:00 Legend Double Dagger -0.7 -1.4 95 22 28 4.8 100.07   -7 Freezing Drizzle,Snow
03:00 Legend Double Dagger -0.6 -1.2 96 22 24 4.8 100.01   -7 Freezing Drizzle,Snow
04:00 Legend Double Dagger -0.6 -1.2 96 22 21 4.8 99.95   -6 Snow
05:00 Legend Double Dagger -0.4 -1.0 96 21 21 4.8 99.87   -6 Snow
06:00 Legend Double Dagger -0.4 -0.8 97 21 17 3.2 99.83   -5 Fog
07:00 Legend Double Dagger -0.2 -0.6 97 19 18 6.4 99.72   -5 Freezing Drizzle
08:00 Legend Double Dagger -0.1 -0.5 97 20 18 1.2 99.65   -5 Freezing Drizzle,Fog
09:00 Legend Double Dagger 0.0 -0.4 97 19 18 1.6 99.58   -5 Drizzle,Fog
10:00 Legend Double Dagger 0.1 -0.3 97 19 17 1.2 99.52     Drizzle,Fog
11:00 Legend Double Dagger 0.2 -0.2 97 20 17 1.2 99.42     Drizzle,Fog
12:00 Legend Double Dagger 0.2 -0.2 97 21 22 8.1 99.33     Fog
13:00 Legend Double Dagger 0.3 -0.1 97 21 24 8.1 99.25     Fog
14:00 Legend Double Dagger 0.3 -0.1 97 23 20 0.8 99.16     Fog
15:00 Legend Double Dagger 0.5 0.1 97 25 21 12.9 99.11     Cloudy
16:00 Legend Double Dagger 0.6 0.2 97 27 23 24.1 99.10     LegendNANA
17:00 Legend Double Dagger 0.3 -0.7 93 28 22 24.1 99.07     LegendNANA
18:00 Legend Double Dagger 0.0 -0.9 94 27 25 16.1 99.08   -6 Snow
19:00 Legend Double Dagger -0.2 -1.1 94 27 24 9.7 99.06   -6 Snow
20:00 Legend Double Dagger -0.2 -0.8 96 34 39 9.7 99.04   -8 Snow
21:00 Legend Double Dagger -2.8 -3.6 94 34 57 6.4 99.08   -12 Snow,Blowing Snow
22:00 Legend Double Dagger -4.3 -5.4 92 34 52 4.8 99.25   -14 Snow,Blowing Snow
23:00 Legend Double Dagger -5.8 -7.2 90 34 62 4.8 99.33   -17 Snow,Blowing Snow

Notes on Data Quality.

Legend

  • E = Estimated
  • M = Missing
  • NA = Not Available
  • ‡ = Partner data that is not subject to review by the National Climate Archives
Date modified: